Location: Oberwangen
(47.4286°N, 8.9679°E)
Time: 10:56:34
(UTC+00:00)

Cosmos 1447 Rocket - Visible Passes

Search period start: 23 October 2021 00:00
Search period end: 02 November 2021 00:00
Orbit: 953 x 996 km, 82.9° (Epoch: 22 October)

Date Brightness Start Highest point End Pass type
(mag) Time Alt. Az. Time Alt. Az. Time Alt. Az.
23 Oct 4.5 18:26:32 10° N 18:32:42 82° W 18:38:50 10° S visible
23 Oct 7.1 20:14:10 10° NW 20:17:02 14° WNW 20:19:55 10° WSW visible
24 Oct 5.2 17:06:50 10° N 17:12:13 31° ENE 17:17:34 10° SE visible
24 Oct 5.3 18:51:57 10° NNW 18:57:49 48° W 19:03:39 10° SSW visible
25 Oct 4.6 17:31:44 10° N 17:37:43 51° ENE 17:43:40 10° SSE visible
25 Oct 6.3 19:17:40 10° NNW 19:22:45 28° W 19:27:51 10° SW visible
26 Oct 7.3 05:22:52 10° ESE 05:26:20 16° ENE 05:29:47 10° NE visible
26 Oct 4.4 17:56:51 10° N 18:03:02 86° E 18:09:12 10° S visible
26 Oct 7.0 19:43:56 10° NW 19:47:32 16° WNW 19:51:07 10° WSW visible
27 Oct 5.3 16:37:18 10° N 16:42:25 27° ENE 16:47:31 10° SE visible
27 Oct 5.1 18:22:12 10° NNW 18:28:11 56° W 18:34:10 10° SSW visible
28 Oct 4.7 17:02:07 10° N 17:07:59 44° ENE 17:13:50 10° SE visible
28 Oct 6.1 18:47:49 10° NNW 18:53:10 33° W 18:58:32 10° SSW visible
29 Oct 7.5 04:54:08 10° ESE 04:56:49 13° ENE 04:59:29 10° NE visible
29 Oct 4.4 17:27:11 10° N 17:33:20 75° E 17:39:30 10° SSE visible
29 Oct 6.9 19:13:52 10° NW 19:17:59 19° W 19:22:08 10° WSW visible
30 Oct 7.1 05:16:50 10° SE 05:21:32 23° E 05:26:13 10° NNE visible
30 Oct 4.9 17:52:27 10° NNW 17:58:33 66° W 18:04:38 10° S visible
30 Oct 7.5 19:41:50 10° WNW 19:42:40 10° WNW 19:43:28 10° W visible
31 Oct 4.9 16:32:32 10° N 16:38:14 38° ENE 16:43:55 10° SE visible
31 Oct 5.9 18:17:59 10° NNW 18:23:35 38° W 18:29:11 10° SSW visible
01 Nov 7.7 04:25:55 10° E 04:27:20 11° ENE 04:28:44 10° ENE visible
01 Nov 4.5 16:57:31 10° N 17:03:39 65° ENE 17:09:46 10° SSE visible
01 Nov 6.8 18:43:53 10° NNW 18:48:27 22° W 18:53:02 10° SW visible
